Weather History for KNJK - August, 2013

Change the Weather History Date:

Saturday, August 3, 2013

  Actual Average Record
Temperature  
Mean Temperature 90 °F -  
Max Temperature 106 °F 105 °F 116 °F (2011)
Min Temperature 75 °F 79 °F 75 °F (2006)
Cooling Degree Days 25    
Growing Degree Days 40 (Base 50)    
Moisture  
Dew Point 39 °F    
Average Humidity 16    
Maximum Humidity 30    
Minimum Humidity 8    
Precipitation  
Precipitation 0.00 in - - ()
Sea Level Pressure  
Sea Level Pressure 29.82 in    
Wind  
Wind Speed 5 mph (West)    
Max Wind Speed 15 mph    
Max Gust Speed 17 mph    
Visibility 10 miles    
Events      
Averages and records for this station are not official NWS values.
T = Trace of Precipitation, MM = Missing Value Source: NWS Daily Summary

Daily Weather History Graph

Daily Weather History Graph

Search for Another Location

Airport or City:

Trip Planner

Search our weather history database for the weather conditions in past years. The results will help you decide how hot, cold, wet, or windy it might be!

Date:

Astronomy

Aug. 03, 2013 Rise Set
Actual Time 5:57 AM PDT 7:39 PM PDT
Civil Twilight 5:31 AM PDT 8:05 PM PDT
Nautical Twilight 4:58 AM PDT 8:37 PM PDT
Astronomical Twilight 4:24 AM PDT 9:11 PM PDT
Moon 3:13 AM PDT 5:23 PM PDT
Length of Visible Light 14h 34m
Length of Day
13h 41m
Waning Crescent, 9% of the Moon is Illuminated
Aug 3
Waning Crescent
Aug 6
New
Aug 14
First Quarter
Aug 20
Full
Aug 28
Last Quarter

Hourly Weather History & Observations

Time (PDT) Temp. Dew Point Humidity Pressure Visibility Wind Dir Wind Speed Gust Speed Precip Events Conditions
12:56 AM 79.0 °F 41.0 °F 26% 29.82 in 10.0 mi North - - N/A   Unknown
1:56 AM 82.9 °F 36.0 °F 19% 29.81 in 10.0 mi North - - N/A   Unknown
2:56 AM 80.1 °F 39.0 °F 23% 29.81 in 10.0 mi North - - N/A   Unknown
3:56 AM 87.1 °F 30.9 °F 13% 29.81 in 10.0 mi North - - N/A   Unknown
4:56 AM 80.1 °F 32.0 °F 17% 29.82 in 10.0 mi North - - N/A   Unknown
5:56 AM 75.9 °F 34.0 °F 22% 29.84 in 10.0 mi WNW 4.6 mph - N/A   Scattered Clouds
6:56 AM 79.0 °F 45.0 °F 30% 29.86 in 10.0 mi WNW 4.6 mph - N/A   Scattered Clouds
7:56 AM 86.0 °F 37.9 °F 18% 29.89 in 10.0 mi NE 3.5 mph - N/A   Scattered Clouds
8:56 AM 90.0 °F 44.1 °F 20% 29.89 in 10.0 mi East 3.5 mph - N/A   Scattered Clouds
9:56 AM 93.9 °F 45.0 °F 18% 29.89 in 10.0 mi East 3.5 mph - N/A   Scattered Clouds
10:56 AM 97.0 °F 36.0 °F 12% 29.88 in 10.0 mi Calm Calm - N/A   Scattered Clouds
11:56 AM 99.0 °F 41.0 °F 14% 29.87 in 10.0 mi Variable 4.6 mph - N/A   Scattered Clouds
12:56 PM 99.0 °F 46.9 °F 17% 29.86 in 10.0 mi West 4.6 mph - N/A   Scattered Clouds
1:56 PM 102.0 °F 32.0 °F 9% 29.84 in 10.0 mi Variable 3.5 mph - N/A   Scattered Clouds
2:56 PM 104.0 °F 32.0 °F 8% 29.81 in 10.0 mi Variable 3.5 mph - N/A   Scattered Clouds
3:56 PM 104.0 °F 39.9 °F 11% 29.79 in 10.0 mi SSE 4.6 mph - N/A   Unknown
4:56 PM 105.1 °F 45.0 °F 13% 29.77 in 10.0 mi Calm Calm - N/A   Unknown
5:56 PM 105.1 °F 45.0 °F 13% 29.76 in 10.0 mi SW 4.6 mph - N/A   Unknown
6:56 PM 104.0 °F 37.0 °F 10% 29.75 in 10.0 mi Calm Calm - N/A   Unknown
7:56 PM 99.0 °F 37.9 °F 12% 29.77 in 10.0 mi WSW 12.7 mph 17.3 mph N/A   Unknown
8:56 PM 93.9 °F 39.0 °F 15% 29.79 in 10.0 mi WSW 10.4 mph - N/A   Unknown
9:56 PM 91.0 °F 39.9 °F 17% 29.81 in 10.0 mi West 12.7 mph - N/A   Unknown
10:56 PM 89.1 °F 37.0 °F 16% 29.82 in 10.0 mi West 15.0 mph - N/A   Unknown
11:56 PM 88.0 °F 34.0 °F 15% 29.81 in 10.0 mi West 6.9 mph - N/A   Unknown